{"data":{"norad_id":69046,"epoch":"2026-05-25T03:10:14.215008Z","epoch_age_seconds":70602,"freshness":"FRESH","line1":"1 69046U 26101X   26145.13210897  .00120579  00000+0  79651-3 0  9998","line2":"2 69046  97.2844 359.9204 0001572  74.1655 285.9784 15.75230605  3017","mean_motion":15.75230605,"eccentricity":0.0001572,"inclination_deg":97.2844,"raan_deg":359.9204,"arg_perigee_deg":74.1655,"mean_anomaly_deg":285.9784,"bstar":0.00079651,"rev_number":301,"period_min":91.41518679419,"perigee_km":342.91833213682,"apogee_km":345.03176416475,"semimajor_km":6722.1120481508,"source":"CELESTRAK","updated_at":"2026-05-25T13:38:22.100942Z"}}